Weather History for KGSH - October, 2012

Change the Weather History Date:

Thursday, October 4, 2012

  Actual Average Record
Temperature  
Mean Temperature 66 °F -  
Max Temperature 79 °F 66 °F 88 °F (1951)
Min Temperature 55 °F 46 °F 28 °F (1989)
Cooling Degree Days 2    
Growing Degree Days 16 (Base 50)    
Moisture  
Dew Point 53 °F    
Average Humidity 66    
Maximum Humidity 87    
Minimum Humidity 39    
Precipitation  
Precipitation 0.00 in - - ()
Sea Level Pressure  
Sea Level Pressure 30.06 in    
Wind  
Wind Speed 10 mph (SW)    
Max Wind Speed 17 mph    
Max Gust Speed 26 mph    
Visibility 10 miles    
Events Rain    
Averages and records for this station are not official NWS values.
T = Trace of Precipitation, MM = Missing Value Source: NWS Daily Summary

Daily Weather History Graph

Daily Weather History Graph

Search for Another Location

Airport or City:

Trip Planner

Search our weather history database for the weather conditions in past years. The results will help you decide how hot, cold, wet, or windy it might be!

Date:

Astronomy

Oct. 04, 2012 Rise Set
Actual Time 7:43 AM EDT 7:19 PM EDT
Civil Twilight 7:15 AM EDT 7:46 PM EDT
Nautical Twilight 6:43 AM EDT 8:18 PM EDT
Astronomical Twilight 6:11 AM EDT 8:50 PM EDT
Moon 9:50 PM EDT (10/4) 12:03 PM EDT (10/4)
Length of Visible Light 12h 30m
Length of Day
11h 35m
Waning Gibbous, 82% of the Moon is Illuminated
Oct 4
Waning Gibbous
Oct 8
Last Quarter
Oct 15
New
Oct 21
First Quarter
Oct 29
Full

Hourly Weather History & Observations

Time (EDT) Temp. Dew Point Humidity Pressure Visibility Wind Dir Wind Speed Gust Speed Precip Events Conditions
12:53 AM 57.9 °F 52.0 °F 81% 30.06 in 10.0 mi South 6.9 mph - N/A   Mostly Cloudy
1:53 AM 57.9 °F 52.0 °F 81% 30.06 in 10.0 mi South 9.2 mph - N/A   Mostly Cloudy
2:53 AM 57.9 °F 51.1 °F 78% 30.06 in 10.0 mi SSW 10.4 mph - N/A   Scattered Clouds
3:53 AM 55.9 °F 51.1 °F 84% 30.06 in 10.0 mi SSW 6.9 mph - N/A   Clear
4:53 AM 55.0 °F 50.0 °F 83% 30.07 in 10.0 mi SSW 9.2 mph - N/A   Clear
5:53 AM 55.0 °F 51.1 °F 86% 30.08 in 10.0 mi SSW 8.1 mph - N/A   Mostly Cloudy
6:53 AM 55.9 °F 51.1 °F 84% 30.09 in 10.0 mi SSW 10.4 mph - N/A   Overcast
7:53 AM 55.9 °F 52.0 °F 87% 30.10 in 9.0 mi SSW 3.5 mph - N/A   Overcast
8:53 AM 55.9 °F 52.0 °F 87% 30.09 in 8.0 mi South 4.6 mph - N/A   Mostly Cloudy
9:53 AM 60.1 °F 53.1 °F 78% 30.11 in 10.0 mi SSW 12.7 mph - N/A   Partly Cloudy
10:53 AM 64.9 °F 54.0 °F 68% 30.12 in 10.0 mi SW 13.8 mph - N/A   Scattered Clouds
11:53 AM 70.0 °F 55.0 °F 59% 30.11 in 10.0 mi SSW 11.5 mph - N/A   Clear
12:53 PM 73.0 °F 55.0 °F 53% 30.08 in 10.0 mi SSW 15.0 mph 20.7 mph N/A   Clear
1:53 PM 75.0 °F 53.1 °F 46% 30.06 in 10.0 mi SW 12.7 mph 23.0 mph N/A   Clear
2:53 PM 78.1 °F 51.1 °F 39% 30.04 in 10.0 mi SW 17.3 mph 25.3 mph N/A   Partly Cloudy
3:53 PM 78.1 °F 51.1 °F 39% 30.04 in 10.0 mi SW 17.3 mph - N/A   Partly Cloudy
4:53 PM 78.1 °F 51.1 °F 39% 30.03 in 10.0 mi SW 15.0 mph 26.5 mph N/A   Scattered Clouds
5:53 PM 77.0 °F 52.0 °F 42% 30.01 in 10.0 mi SSW 15.0 mph 21.9 mph N/A   Clear
6:53 PM 75.0 °F 53.1 °F 46% 30.01 in 10.0 mi SSW 9.2 mph - N/A   Scattered Clouds
7:53 PM 73.9 °F 53.1 °F 48% 30.01 in 10.0 mi SSW 11.5 mph - N/A   Overcast
9:00 PM 71.6 °F 55.4 °F 57% 30.04 in 10.0 mi West 13.8 mph - N/A   Mostly Cloudy
9:53 PM 66.0 °F 55.9 °F 70% 30.04 in 10.0 mi West 3.5 mph - 0.00 in Rain Light Rain
10:53 PM 63.0 °F 55.0 °F 75% 30.08 in 10.0 mi West 12.7 mph - 0.00 in   Overcast
11:53 PM 61.0 °F 55.0 °F 81% 30.08 in 10.0 mi West 11.5 mph - 0.00 in   Overcast